Tiempo atmosférico en la estación meteorológica de Santillana del Mar, Altamira, Cantabria (150 m.)



Fecha
DESCASC
Temp. máxima en grados centígrados (hora)
DESCASC
Temp. mínima en grados centígrados (hora)
DESCASC
Temp. media en grados centígrados
DESCASC
Racha de viento máxima en m/sg (hora)
DESCASC
Velocidad máxima media en intervalos de 10 minutos(hora)
DESCASC
Precipitaciones diarias en mm
DESCASC
Precipitaciones de 00:00 a 06:00 en mm
DESCASC
Precipitaciones de 06:00 a 12:00 en mm
DESCASC
Precipitaciones de 12:00 a 18:00 en mm
DESCASC
Precipitaciones de 18:00 a 24:00 en mm
DESCASC
25-01-2020 -- (--) -- (--) -- -- (--) -- (--) -- -- 0 0 0
24-01-2020 -- (--) -- (--) -- -- (--) -- (--) -- 0 0 -- --
23-01-2020 -- (--) -- (--) -- -- (--) -- (--) -- -- 0 -- 0
22-01-2020 8.6 (12:50) 5.1 (00:00) 6.9 -- (--) -- (--) 2.2 0.4 0.4 1.4 0
21-01-2020 8.1 (12:30) 4.9 (00:00) 6.5 -- (--) -- (--) -- -- -- 0.2 0.4
20-01-2020 7.7 (15:50) 4.6 (00:00) 6.1 -- (--) -- (--) -- -- -- 0 0
19-01-2020 9.6 (02:00) 7.1 (00:00) 8.4 15.83 (20:30) 7.78 (20:30) 5.8 5.8 0 0 0
18-01-2020 16.3 (14:30) 6.1 (00:00) 11.2 -- (--) -- (--) -- -- -- 4 3.2
17-01-2020 12.2 (13:00) 7.1 (00:00) 9.6 10.28 (14:30) 5.56 (05:10) 7.4 5 2.4 0 0
16-01-2020 17.7 (15:40) 7.7 (00:00) 12.7 20.28 (14:50) 13.89 (17:20) 0.2 0.2 0 0 0
15-01-2020 15.9 (03:10) 7.6 (00:00) 11.7 16.11 (06:00) 11.39 (06:00) 0.4 0 0.4 0 0
14-01-2020 16.7 (14:50) 9.6 (00:00) 13.2 12.5 (23:59) 7.5 (23:40) 0 0 0 0 0
13-01-2020 15.8 (14:30) 4.5 (00:00) 10.2 8.89 (23:50) 5.28 (23:50) 0 0 0 0 0
12-01-2020 15.4 (14:50) 1.9 (00:00) 8.6 6.11 (09:10) 4.72 (09:00) 0 0 0 0 0
11-01-2020 13.1 (14:50) 2.3 (00:00) 7.7 4.17 (03:40) 3.06 (03:10) 0 0 0 0 0
10-01-2020 11.7 (13:50) 7.6 (00:00) 9.6 12.22 (02:00) 4.44 (00:10) 5.6 1.2 1.4 3 0
09-01-2020 19.8 (14:40) 7.2 (00:00) 13.5 18.33 (15:20) 8.33 (15:20) 0.4 0 0 0.2 0.2
08-01-2020 16.6 (13:30) 5.7 (00:00) 11.2 5 (08:10) 3.33 (01:10) 0 0 0 0 0
07-01-2020 14.1 (15:10) 4.2 (00:00) 9.2 5.28 (16:20) 3.89 (06:20) 0.2 0 0.2 0 0
06-01-2020 12 (12:30) 2.9 (00:00) 7.5 5.83 (14:10) 3.33 (09:50) 0 0 0 0 0
05-01-2020 11.9 (15:40) 2.2 (00:00) 7 4.17 (13:00) 2.78 (05:40) 0.2 0.2 0 0 0
04-01-2020 10.6 (14:20) 5.1 (00:00) 7.9 3.89 (04:00) 2.22 (02:00) 7.6 3.4 4 0.2 0
03-01-2020 11.3 (17:30) 6.7 (00:00) 9 -- (--) -- (--) -- 0 -- 1.2 0.8
02-01-2020 14.1 (13:00) 2.6 (00:00) 8.4 6.67 (17:00) 3.61 (05:40) 0 0 0 0 0
01-01-2020 12.4 (13:00) 5.1 (00:00) 8.7 5.28 (05:20) 3.33 (08:00) 0 0 0 0 0
31-12-2019 -- (--) -- (--) -- -- (--) -- (--) 0 0 0 0 0
30-12-2019 -- (--) -- (--) -- -- (--) -- (--) 0 0 0 0 0
29-12-2019 16.3 (15:00) 3.4 (00:00) 9.8 -- (--) -- (--) -- -- 0 0 0
28-12-2019 14.1 (15:40) 3.7 (00:00) 8.9 4.72 (07:00) 3.33 (03:00) 0 0 0 0 0

Gráficas

Temp. máximas Temp. mínimas Temp. medias Precipitaciones Rachas de viento máximas Velocidades máximas media en intervalos de 10 minutos

Datos horarios

Fecha y hora oficial Temperatura (ºC) Velocidad del viento (km/h) Dirección del viento Racha (km/h) Dirección de racha Precipitación (mm) Presión (hPa) Tendencia (hPa) Humedad (%)
2020-01-26 23:00:00 8.6 8 Sur 15 Sur 0 -- -- 72
2020-01-26 22:00:00 7.6 7 Sur 12 Sur 0 -- -- 78
2020-01-26 21:00:00 8.4 6 Sur 14 Sudeste 0 -- -- 73
2020-01-26 20:00:00 8.9 11 Sudeste 17 Sudeste 0 -- -- 73
2020-01-26 19:00:00 10.4 9 Sudeste 17 Sudeste 0 -- -- 72
2020-01-26 18:00:00 11.9 5 Nordeste 10 Nordeste 0 -- -- 70
2020-01-26 17:00:00 13 3 Nordeste 9 Sudeste 0 -- -- 70
2020-01-26 16:00:00 14.1 6 Sudeste 10 Nordeste 0 -- -- 61
2020-01-26 15:00:00 14.7 6 Sudeste 15 Sudeste 0 -- -- 56
2020-01-26 14:00:00 14.3 7 Sudeste 15 Sudeste 0 -- -- 59
2020-01-26 13:00:00 13.3 7 Sudeste 10 Sur 0 -- -- 61
2020-01-26 12:00:00 11.4 4 Sur 12 Sur 0 -- -- 69
2020-01-26 11:00:00 8.6 10 Sur 16 Sur 0 -- -- 78
2020-01-26 10:00:00 6.7 9 Sur 17 Sudoeste 0 -- -- 81
2020-01-26 09:00:00 4.6 9 Sudoeste 14 Sur 0 -- -- 89
2020-01-26 08:00:00 4 9 Sur 16 Sudoeste 0 -- -- 87
2020-01-26 07:00:00 4.3 9 Sur 17 Sudoeste 0 -- -- 87
2020-01-26 06:00:00 5.8 11 Sudoeste 20 Sudoeste 0 -- -- 84
2020-01-26 05:00:00 6.4 10 Sudoeste 18 Sudoeste 0 -- -- 82
2020-01-26 04:00:00 6.5 10 Sudoeste 18 Sudoeste 0 -- -- 85
2020-01-26 03:00:00 7.1 10 Sudoeste 16 Sudoeste 0 -- -- 83
2020-01-26 02:00:00 7 10 Sudoeste 18 Sudoeste 0 -- -- 84
2020-01-26 01:00:00 7.4 9 Sudoeste 17 Sudoeste 0 -- -- 84
2020-01-26 00:00:00 7.4 9 Sudoeste 15 Sudoeste 0 -- -- 90
2020-01-25 23:00:00 7.8 8 Sudoeste 13 Sudoeste 0 -- -- 95
2020-01-25 22:00:00 8.2 6 Sudoeste 11 Sudoeste 0 -- -- 93
2020-01-25 21:00:00 8.6 4 Sudoeste 6 Oeste 0 -- -- 91
2020-01-25 20:00:00 9.1 0 Calma 5 Noroeste 0 -- -- 90
2020-01-25 19:00:00 9.3 0 Calma 5 Sudeste 0 -- -- 90
2020-01-25 18:00:00 10.5 0 Calma 9 Noroeste 0 -- -- 87
2020-01-25 17:00:00 10.8 6 Norte 10 Noroeste 0 -- -- 87
2020-01-25 16:00:00 10.8 7 Noroeste 12 Norte 0 -- -- 87
2020-01-25 15:00:00 11.5 8 Norte 12 Norte 0 -- -- 83
2020-01-25 14:00:00 11.8 7 Norte 10 Noroeste 0 -- -- 81
2020-01-25 13:00:00 11.8 2 Sur 8 Sur 0 -- -- 72
2020-01-25 12:00:00 10.1 5 Sudoeste 10 Sudoeste 0 -- -- 78
2020-01-25 11:00:00 8.4 6 Sudoeste 12 Sudoeste 0 -- -- 81
2020-01-25 10:00:00 8.8 0 Calma 13 Oeste 0 -- -- 79
2020-01-25 09:00:00 6.9 6 Sudoeste 11 Sudoeste 0 -- -- 86
2020-01-25 08:00:00 6.9 5 Oeste 10 Sudoeste 0 -- -- 85
2020-01-25 07:00:00 7.2 6 Sudoeste 12 Sudoeste 0 -- -- 81
2020-01-25 06:00:00 7 5 Sudoeste 8 Sudoeste 0 -- -- 83
2020-01-25 05:00:00 8.1 3 Oeste 15 Sudoeste 0 -- -- 80
2020-01-25 04:00:00 6.8 10 Sur 14 Sur 0 -- -- 86
2020-01-25 03:00:00 -- -- -- -- -- -- -- -- --
2020-01-25 02:00:00 -- -- -- -- -- -- -- -- --
2020-01-25 01:00:00 -- -- -- -- -- -- -- -- --
2020-01-25 00:00:00 -- -- -- -- -- -- -- -- --
2020-01-24 23:00:00 -- -- -- -- -- -- -- -- --
2020-01-24 22:00:00 -- -- -- -- -- -- -- -- --
2020-01-24 21:00:00 -- -- -- -- -- -- -- -- --
2020-01-24 20:00:00 -- -- -- -- -- -- -- -- --
2020-01-24 19:00:00 -- -- -- -- -- -- -- -- --
2020-01-24 18:00:00 -- -- -- -- -- -- -- -- --
2020-01-24 17:00:00 10.7 2 Norte 9 Noroeste 0 -- -- 81
2020-01-24 16:00:00 11.3 7 Norte 10 Norte 0 -- -- 78
2020-01-24 15:00:00 11.7 5 Norte 14 Noroeste 0 -- -- 73
2020-01-24 14:00:00 10.8 -- -- -- -- -- -- -- --
2020-01-24 13:00:00 11.5 0 Calma 6 Sur 0 -- -- 82
2020-01-24 12:00:00 11 2 Norte 12 Sudoeste 0 -- -- 78
2020-01-24 11:00:00 8.9 6 Sur 11 Sudoeste 0 -- -- 85
2020-01-24 10:00:00 7.6 5 Sudoeste 10 Sudeste 0 -- -- 91
2020-01-24 09:00:00 8.1 4 Oeste 12 Sudoeste 0 -- -- 91
2020-01-24 08:00:00 7.1 6 Sudoeste 10 Sudoeste 0 -- -- 92
2020-01-24 07:00:00 6.4 6 Sudoeste 12 Oeste 0 -- -- 86
2020-01-24 06:00:00 8.2 6 Noroeste 13 Norte 0 -- -- 86
2020-01-24 05:00:00 7.7 3 Norte 13 Sudoeste 0 -- -- 78
2020-01-24 04:00:00 7.8 11 Sudoeste 14 Sudoeste 0 -- -- 79
2020-01-24 03:00:00 7.5 6 Sudoeste 12 Sudoeste 0 -- -- 82
2020-01-24 02:00:00 7.5 6 Sudoeste 14 Sudoeste 0 -- -- 83
2020-01-24 01:00:00 7.3 9 Sudoeste 14 Sudoeste 0 -- -- 88
2020-01-24 00:00:00 6.6 5 Sudoeste 10 Sudoeste 0 -- -- 95
2020-01-23 23:00:00 7.2 4 Sur 7 Sudoeste 0 -- -- 94
2020-01-23 22:00:00 7.8 4 Sudoeste 6 Sudoeste 0 -- -- 95
2020-01-23 21:00:00 8 4 Sur 6 Sur 0 -- -- 94
2020-01-23 20:00:00 8.1 0 Calma 5 Sudoeste 0 -- -- 93
2020-01-23 19:00:00 8.4 0 Calma 5 Sudoeste 0 -- -- 90
2020-01-23 18:00:00 9 4 Sudoeste 5 Sudoeste 0 -- -- 89
2020-01-23 17:00:00 10 4 Norte 7 Norte 0 -- -- 85
2020-01-23 16:00:00 10.9 3 Sudoeste 8 Sudoeste 0 -- -- 79
2020-01-23 15:00:00 10.8 0 Calma 7 Norte 0 -- -- 82
2020-01-23 14:00:00 10.2 4 Norte -- -- -- -- -- 81
2020-01-23 13:00:00 10.5 4 Norte 14 Norte -- -- -- 83
2020-01-23 12:00:00 9.1 2 Sur 13 Sudoeste 0 -- -- 83
2020-01-23 11:00:00 6.7 11 Sudoeste 14 Sudoeste 0 -- -- 91
2020-01-23 10:00:00 4.9 7 Sur 12 Sudoeste 0 -- -- 94
2020-01-23 09:00:00 4.7 0 Calma 5 Noroeste 0 -- -- 95
2020-01-23 08:00:00 4.8 4 Oeste 18 Sudoeste 0 -- -- 97
2020-01-23 07:00:00 4.8 4 Sur 10 Sur 0 -- -- 97
2020-01-23 06:00:00 4.5 2 Sur 13 Sudoeste 0 -- -- 97
2020-01-23 05:00:00 -- -- -- -- -- -- -- -- --
2020-01-23 04:00:00 -- -- -- -- -- -- -- -- --
2020-01-23 03:00:00 5.1 -- -- -- -- -- -- -- --
2020-01-23 02:00:00 5.2 4 Sur 7 Sudoeste 0 -- -- 100
2020-01-23 01:00:00 5.3 8 Sudoeste 10 Sudoeste 0 -- -- 100
2020-01-23 00:00:00 6 6 Sudoeste 12 Sudoeste 0 -- -- 100
2020-01-22 23:00:00 6 -- -- -- -- 0 -- -- --
2020-01-22 22:00:00 5.7 3 Sudeste 8 Sudoeste 0 -- -- 100
2020-01-22 21:00:00 6.3 8 Sudoeste 9 Sudoeste 0 -- -- 100
2020-01-22 20:00:00 6.9 3 Nordeste 6 Nordeste 0 -- -- 99
2020-01-22 19:00:00 7.5 3 Sur 5 Sur 0 -- -- 99
2020-01-22 18:00:00 7.9 0 Calma 3 Sudeste 0 -- -- 98
2020-01-22 17:00:00 8 3 Sudeste 5 Sudeste 0 -- -- 98
2020-01-22 16:00:00 8.2 2 Nordeste 8 Norte 0.2 -- -- 98
2020-01-22 15:00:00 8.4 5 Norte 6 Norte 0.4 -- -- 97
2020-01-22 14:00:00 8.6 0 Calma 7 Norte 0.6 -- -- 95
2020-01-22 13:00:00 8.6 4 Norte 6 Norte 0.2 -- -- 96
2020-01-22 12:00:00 8.4 3 Noroeste 8 Sudoeste 0.2 -- -- 95
2020-01-22 11:00:00 8.2 3 Sudoeste 12 Sudoeste 0.2 -- -- 94
2020-01-22 10:00:00 7.7 8 Sudoeste 13 Sudoeste 0 -- -- 94
2020-01-22 09:00:00 8 2 Nordeste 9 Nordeste 0 -- -- 92
2020-01-22 08:00:00 8.4 4 Nordeste 14 Norte 0 -- -- 88
2020-01-22 07:00:00 8.5 2 Noroeste 8 Nordeste 0 -- -- 90
2020-01-22 06:00:00 8.1 0 Calma 8 Sudoeste 0 -- -- 95
2020-01-22 05:00:00 7.8 2 Sudeste 16 Noroeste 0 -- -- 96
2020-01-22 04:00:00 8 5 Noroeste 15 Noroeste 0 -- -- 98
2020-01-22 03:00:00 6.9 3 Norte 13 Sudoeste 0 -- -- 100
2020-01-22 02:00:00 6.6 7 Sudoeste 14 Sudoeste 0.2 -- -- 99
2020-01-22 01:00:00 6.4 8 Sudoeste 16 Sudoeste 0.2 -- -- 99
2020-01-22 00:00:00 6.3 7 Sur 10 Sudoeste 0.2 -- -- 97
2020-01-21 23:00:00 -- 2 Sur 10 Oeste 0 -- -- --
2020-01-21 22:00:00 5.9 3 Sudoeste 6 Oeste 0.2 -- -- 95
2020-01-21 21:00:00 6 3 Sudoeste 5 Sudoeste 0 -- -- 94
2020-01-21 20:00:00 6.1 3 Noroeste 14 Sudoeste 0 -- -- 93
2020-01-21 19:00:00 5.8 6 Sudoeste 14 Sudoeste 0 -- -- 95
2020-01-21 18:00:00 6.1 5 Sudoeste 9 Sudoeste 0.2 -- -- 93
2020-01-21 17:00:00 6.5 2 Oeste 13 Sudoeste 0 -- -- 89
2020-01-21 16:00:00 6.8 3 Sudoeste 9 Sudoeste 0 -- -- 84
2020-01-21 15:00:00 7.4 2 Este 7 Norte 0 -- -- 79
2020-01-21 14:00:00 7.5 3 Nordeste 9 Nordeste 0 -- -- 77
2020-01-21 13:00:00 8 4 Norte 10 Nordeste 0 -- -- 75
2020-01-21 12:00:00 7.6 -- -- -- -- -- -- -- --
2020-01-21 11:00:00 6.8 2 Oeste 10 Oeste 0 -- -- 80
2020-01-21 10:00:00 6.1 6 Sudoeste 15 Sudoeste 0 -- -- 78
2020-01-21 09:00:00 5.7 9 Sudoeste 15 Sudoeste 0 -- -- 80
2020-01-21 08:00:00 5.4 7 Sudoeste 13 Sudoeste 0 -- -- 80
2020-01-21 07:00:00 5.4 5 Sudoeste 11 Sudoeste 0 -- -- 80
2020-01-21 06:00:00 5.2 8 Sudoeste 14 Sudoeste 0 -- -- 80
2020-01-21 05:00:00 5.3 5 Sudoeste 11 Sudoeste 0 -- -- 79
2020-01-21 04:00:00 5.2 3 Sudoeste 9 Sur 0 -- -- 79
2020-01-21 03:00:00 5.7 3 Sudoeste 11 Sudoeste 0 -- -- 76
2020-01-21 02:00:00 6 3 Sudoeste 5 Sudoeste 0 -- -- 77
2020-01-21 01:00:00 5.9 -- -- -- -- -- -- -- --
2020-01-21 00:00:00 5.8 3 Sudoeste 9 Oeste 0 -- -- 76
2020-01-20 23:00:00 5.5 3 Sudoeste 13 Oeste 0 -- -- 77
2020-01-20 22:00:00 5.4 4 Sudoeste 10 Sudoeste 0 -- -- 78
2020-01-20 21:00:00 5.6 3 Sudoeste 7 Sudoeste 0 -- -- 74
2020-01-20 20:00:00 5.5 0 Calma 6 Este 0 -- -- 71
2020-01-20 19:00:00 5.6 3 Este 12 Nordeste 0 -- -- 72
2020-01-20 18:00:00 6.1 4 Nordeste 18 Este 0 -- -- 72
2020-01-20 17:00:00 6.7 7 Nordeste 16 Nordeste -- -- -- 63
2020-01-20 16:00:00 7.1 13 Norte 27 Norte 0 -- -- 64
2020-01-20 15:00:00 7.5 7 Nordeste 16 Norte 0 -- -- 64
2020-01-20 14:00:00 6.6 3 Este 13 Este 0 -- -- 70
2020-01-20 13:00:00 6.9 3 Nordeste 9 Nordeste 0 -- -- 65
2020-01-20 12:00:00 -- -- -- -- -- -- -- -- --
2020-01-20 11:00:00 5.9 10 Norte 21 Nordeste 0 -- -- 68
2020-01-20 10:00:00 5.4 5 Norte 23 Nordeste 0 -- -- 76
2020-01-20 09:00:00 4.7 15 Norte 29 Norte 0.2 -- -- 81
2020-01-20 08:00:00 5.1 7 Nordeste 31 Nordeste 0.2 -- -- 79
2020-01-20 07:00:00 5.7 15 Nordeste 35 Nordeste 0 -- -- 68
2020-01-20 06:00:00 5.6 11 Nordeste 32 Nordeste 0 -- -- 75
2020-01-20 05:00:00 5.5 16 Norte 30 Nordeste 0.2 -- -- 78
2020-01-20 04:00:00 5.2 11 Nordeste 36 Nordeste 0.6 -- -- 81
2020-01-20 03:00:00 5.7 12 Norte 37 Nordeste 0.4 -- -- 77
2020-01-20 02:00:00 6.8 14 Nordeste 33 Nordeste 0 -- -- 67
2020-01-20 01:00:00 7 -- -- -- -- -- -- -- --
2020-01-20 00:00:00 7.2 18 Nordeste 40 Nordeste 0 -- -- 65
2020-01-19 23:00:00 7.1 22 Nordeste 47 Nordeste 0 -- -- 66
2020-01-19 22:00:00 7.5 23 Nordeste 53 Nordeste 0 -- -- 67
2020-01-19 21:00:00 7.6 26 Norte 57 Nordeste 0 -- -- 69
2020-01-19 20:00:00 7.6 26 Norte 42 Nordeste 0 -- -- 68
2020-01-19 19:00:00 7.4 22 Norte 38 Norte 0 -- -- 70
2020-01-19 18:00:00 7.7 19 Norte 35 Nordeste 0 -- -- 71
2020-01-19 17:00:00 8.2 15 Norte 37 Norte 0 -- -- 67
2020-01-19 16:00:00 8.7 20 Norte 39 Nordeste 0 -- -- 66
2020-01-19 15:00:00 9.1 16 Norte 38 Norte 0 -- -- 65
2020-01-19 14:00:00 9 18 Norte 38 Norte 0 -- -- 65
2020-01-19 13:00:00 8.9 17 Norte 40 Norte 0 -- -- 71
2020-01-19 12:00:00 9 23 Norte 40 Norte 0 -- -- 76
2020-01-19 11:00:00 8.8 21 Norte 40 Norte 0 -- -- 77
2020-01-19 10:00:00 8.8 18 Norte 36 Norte 0 -- -- 77
2020-01-19 09:00:00 8.4 15 Norte 38 Norte 0 -- -- 79
2020-01-19 08:00:00 8.5 19 Norte 43 Norte 0 -- -- 84
2020-01-19 07:00:00 8.8 20 Norte 38 Norte 0 -- -- 86
2020-01-19 06:00:00 8.2 16 Norte 44 Norte 0.2 -- -- 88
2020-01-19 05:00:00 8.6 24 Norte 45 Norte 0 -- -- 88
2020-01-19 04:00:00 8.4 17 Norte 43 Nordeste 0.2 -- -- 96
2020-01-19 03:00:00 8.6 24 Nordeste 49 Norte 4.8 -- -- 97
2020-01-19 02:00:00 9.6 10 Noroeste 26 Oeste -- -- -- 91
2020-01-19 01:00:00 9.4 7 Noroeste 23 Noroeste 0.2 -- -- 91
2020-01-19 00:00:00 8.9 4 Oeste 22 Oeste 0.8 -- -- 91
2020-01-18 23:00:00 9.3 3 Oeste 15 Oeste 0.4 -- -- 85
2020-01-18 22:00:00 9.3 6 Sudoeste 17 Oeste 0 -- -- 87
2020-01-18 21:00:00 8.7 5 Sur 16 Noroeste 0.4 -- -- 94
2020-01-18 20:00:00 9.3 6 Sudoeste 22 Oeste 1.6 -- -- 87
2020-01-18 19:00:00 9.9 8 Sudoeste 21 Sudoeste 0 -- -- 79
2020-01-18 18:00:00 9.4 10 Sudoeste 27 Sudoeste 0.2 -- -- 84
2020-01-18 17:00:00 8.9 12 Oeste 69 Noroeste 3.8 -- -- 93
2020-01-18 16:00:00 15.1 14 Sudoeste 38 Sur 0 -- -- 60
2020-01-18 15:00:00 16.1 24 Sur 35 Sudeste 0 -- -- 58
2020-01-18 14:00:00 16 16 Sur 33 Sur 0 -- -- 57
2020-01-18 13:00:00 14.4 23 Sur 49 Sur 0 -- -- 61
2020-01-18 12:00:00 13 35 Sur 55 Sur 0 -- -- 61
2020-01-18 11:00:00 11.8 -- -- -- -- -- -- -- --
2020-01-18 10:00:00 9.7 12 Sur 21 Sur 0 -- -- 68
2020-01-18 09:00:00 7 6 Sur 13 Sur 0 -- -- 74
2020-01-18 08:00:00 7 7 Sur 14 Sudeste 0 -- -- 77
2020-01-18 07:00:00 7.1 4 Este 13 Nordeste 0 -- -- 82
2020-01-18 06:00:00 6.2 4 Sudeste 12 Este 0 -- -- 91
2020-01-18 05:00:00 6.5 3 Sudoeste 12 Sudoeste 0 -- -- 90
2020-01-18 04:00:00 6.7 7 Sur 10 Sur 0 -- -- 90
2020-01-18 03:00:00 6.7 8 Sudoeste 11 Sudoeste 0 -- -- 94
2020-01-18 02:00:00 6.4 3 Norte 7 Sur 0 -- -- 94
2020-01-18 01:00:00 -- -- -- -- -- -- -- -- --
2020-01-18 00:00:00 7.2 2 Este 3 Nordeste 0 -- -- 89
2020-01-17 23:00:00 7.1 0 Calma 4 Sur 0 -- -- 88
2020-01-17 22:00:00 7.3 4 Sudoeste 9 Sudoeste 0 -- -- 89
2020-01-17 21:00:00 8.4 5 Sudoeste 9 Sudoeste 0 -- -- 83
2020-01-17 20:00:00 8.9 5 Sur 7 Sur 0 -- -- 83
2020-01-17 19:00:00 9.6 4 Sudoeste 17 Noroeste 0 -- -- 82
2020-01-17 18:00:00 9.6 7 Noroeste 23 Noroeste 0 -- -- 82
2020-01-17 17:00:00 10.3 8 Noroeste 26 Oeste 0 -- -- 69
2020-01-17 16:00:00 11.4 13 Noroeste 37 Noroeste 0 -- -- 67
2020-01-17 15:00:00 11.6 20 Noroeste 37 Oeste 0 -- -- 62
2020-01-17 14:00:00 11.9 13 Noroeste 32 Oeste 0 -- -- 63
2020-01-17 13:00:00 12.2 10 Oeste 24 Oeste 0 -- -- 63
2020-01-17 12:00:00 11.2 10 Oeste 33 Oeste 0 -- -- 72
2020-01-17 11:00:00 9.5 17 Noroeste 34 Noroeste 0 -- -- 82
2020-01-17 10:00:00 9.8 13 Noroeste 31 Noroeste 0 -- -- 82
2020-01-17 09:00:00 8.6 5 Sudoeste 22 Oeste 0.4 -- -- 86
2020-01-17 08:00:00 8.9 9 Oeste 22 Oeste 0.2 -- -- 89
2020-01-17 07:00:00 8.9 10 Noroeste 36 Oeste 1.8 -- -- 94
2020-01-17 06:00:00 9.1 11 Noroeste 36 Noroeste 5 -- -- 97
2020-01-17 05:00:00 10.1 12 Norte 22 Norte 0 -- -- 98
2020-01-17 04:00:00 9.8 0 Calma 8 Sudeste 0 -- -- 98
2020-01-17 03:00:00 9.9 3 Sur 11 Sudoeste 0 -- -- 99
2020-01-17 02:00:00 10.2 5 Sudoeste 20 Noroeste 0 -- -- 98
2020-01-17 01:00:00 10.5 12 Noroeste 19 Noroeste 0 -- -- 98
2020-01-17 00:00:00 10.4 3 Noroeste 10 Noroeste 0 -- -- 96
2020-01-16 23:00:00 11.2 9 Norte 13 Nordeste 0 -- -- 95
2020-01-16 22:00:00 11.8 5 Nordeste 30 Noroeste 0 -- -- 91
2020-01-16 21:00:00 12.6 17 Noroeste 37 Noroeste 0 -- -- 86
2020-01-16 20:00:00 15.8 24 Sur 50 Sur 0 -- -- 42
2020-01-16 19:00:00 16.5 23 Sur 61 Sur 0 -- -- 39
2020-01-16 18:00:00 16.7 33 Sur 72 Sur 0 -- -- 41
2020-01-16 17:00:00 17.2 30 Sur 58 Sur 0 -- -- 40
2020-01-16 16:00:00 17.4 32 Sur 70 Sudoeste 0 -- -- 37
2020-01-16 15:00:00 17.6 47 Sudoeste 73 Sur 0 -- -- 38
2020-01-16 14:00:00 16.1 17 Sur 41 Sudoeste 0 -- -- 53
2020-01-16 13:00:00 16.3 17 Sur 38 Sur 0 -- -- 54
2020-01-16 12:00:00 16.4 27 Sur 60 Sudoeste 0 -- -- 54
2020-01-16 11:00:00 17 39 Sur 59 Sur 0 -- -- 50
2020-01-16 10:00:00 16.9 28 Sur 46 Sur 0 -- -- 52
2020-01-16 09:00:00 16.2 24 Sur 40 Sur 0 -- -- 55
2020-01-16 08:00:00 16.8 20 Sur 40 Sur 0 -- -- 51
2020-01-16 07:00:00 15.4 12 Sur 25 Sur 0 -- -- 56
2020-01-16 06:00:00 15.8 13 Sur 36 Sur 0 -- -- 56
2020-01-16 05:00:00 15.6 24 Sur 44 Sur 0.2 -- -- 61
2020-01-16 04:00:00 13.9 10 Este 26 Sur 0 -- -- 66
2020-01-16 03:00:00 12.2 11 Sur 27 Sudoeste 0 -- -- 73
2020-01-16 02:00:00 10.5 9 Sur 15 Sudeste 0 -- -- 84
2020-01-16 01:00:00 8.8 5 Sur 11 Sudoeste 0 -- -- 89
2020-01-16 00:00:00 7.7 6 Sudoeste 11 Sudoeste 0 -- -- 98
2020-01-15 23:00:00 8.2 6 Sudoeste 8 Sudoeste 0 -- -- 98
2020-01-15 22:00:00 8.8 2 Este 12 Este 0 -- -- 97
2020-01-15 21:00:00 9.2 5 Sudeste 15 Este 0 -- -- 96
2020-01-15 20:00:00 9.2 8 Sudeste 10 Sudeste 0 -- -- 96
2020-01-15 19:00:00 10.3 2 Sur 5 Sur 0 -- -- 95
2020-01-15 18:00:00 10.4 0 Calma 8 Sudeste 0 -- -- 96
2020-01-15 17:00:00 10.5 5 Norte 17 Norte 0 -- -- 96
2020-01-15 16:00:00 11.9 9 Noroeste 21 Noroeste 0 -- -- 90
2020-01-15 15:00:00 11.9 11 Noroeste 28 Norte 0 -- -- 92
2020-01-15 14:00:00 12.4 16 Noroeste 32 Noroeste 0 -- -- 89
2020-01-15 13:00:00 12.8 22 Norte 29 Noroeste 0 -- -- 84
2020-01-15 12:00:00 12.4 9 Sudeste 13 Sudeste 0 -- -- 89
2020-01-15 11:00:00 11.7 4 Oeste 36 Noroeste 0.4 -- -- 91
2020-01-15 10:00:00 13 20 Noroeste 49 Sudoeste 0 -- -- 81
2020-01-15 09:00:00 13.9 19 Sur 42 Sur 0 -- -- 56
2020-01-15 08:00:00 14.9 21 Sur 46 Sur 0 -- -- 51
2020-01-15 07:00:00 14.8 26 Sur 58 Sur 0 -- -- 51
2020-01-15 06:00:00 15.2 41 Sur 58 Sur 0 -- -- 49
2020-01-15 05:00:00 15.4 22 Sur 53 Sur 0 -- -- 48
2020-01-15 04:00:00 15.8 27 Sur 56 Sur 0 -- -- 45
2020-01-15 03:00:00 15.7 33 Sur 49 Sur 0 -- -- 44
2020-01-15 02:00:00 15 31 Sur 47 Sudoeste 0 -- -- 47
2020-01-15 01:00:00 14.2 28 Sur 44 Sur 0 -- -- 48
2020-01-15 00:00:00 14.4 23 Sur 45 Sudoeste 0 -- -- 46
2020-01-14 23:00:00 12.8 9 Sur 27 Sudoeste 0 -- -- 50
2020-01-14 22:00:00 14.1 20 Sur 35 Sur 0 -- -- 45
2020-01-14 21:00:00 13.3 14 Sudeste 39 Sur 0 -- -- 49
2020-01-14 20:00:00 14.2 24 Sur 36 Sur -- -- -- 44
2020-01-14 19:00:00 13.8 23 Sur 34 Sur 0 -- -- 46
2020-01-14 18:00:00 13.4 13 Sur 28 Sur 0 -- -- 48
2020-01-14 17:00:00 13.7 14 Sur 22 Sudeste 0 -- -- 47
2020-01-14 16:00:00 14.7 13 Sur 27 Sur -- -- -- 45
2020-01-14 15:00:00 16.7 16 Sudeste 25 Sudeste 0 -- -- 44
2020-01-14 14:00:00 16.1 13 Sudeste 30 Sur 0 -- -- 45
2020-01-14 13:00:00 13.9 17 Sur 32 Sur 0 -- -- 48
2020-01-14 12:00:00 13.3 20 Sur 35 Sudeste 0 -- -- 51
2020-01-14 11:00:00 12.2 24 Sudeste 38 Sudeste 0 -- -- 53
2020-01-14 10:00:00 11.9 23 Sur 32 Sudeste 0 -- -- 56
2020-01-14 09:00:00 11.6 17 Sudeste 31 Sudeste 0 -- -- 56
2020-01-14 08:00:00 11.3 19 Sudeste 33 Sudeste 0 -- -- 57
2020-01-14 07:00:00 11.4 23 Sudeste 40 Sudeste 0 -- -- 55
2020-01-14 06:00:00 11.6 23 Sur 36 Sur 0 -- -- 53
2020-01-14 05:00:00 11.6 20 Sur 31 Sudeste 0 -- -- 52
2020-01-14 04:00:00 11.2 19 Sur 34 Sudeste 0 -- -- 52
2020-01-14 03:00:00 11.3 17 Sur 30 Sudeste 0 -- -- 50
2020-01-14 02:00:00 9.9 9 Sur 15 Sur 0 -- -- 54
2020-01-14 01:00:00 9.6 9 Sur 24 Sudeste 0 -- -- 52
2020-01-14 00:00:00 9.8 18 Sudeste 32 Sudeste 0 -- -- 48
2020-01-13 23:00:00 9.1 10 Sur 24 Sudeste 0 -- -- 49
2020-01-13 22:00:00 8.3 9 Sur 13 Sur 0 -- -- 53
2020-01-13 21:00:00 8.5 8 Sudeste 13 Sudeste 0 -- -- 48
2020-01-13 20:00:00 9.2 9 Sudeste 14 Sudeste 0 -- -- 44
2020-01-13 19:00:00 10.1 9 Sur 20 Sudeste 0 -- -- 41
2020-01-13 18:00:00 11.5 14 Sudeste 19 Sudeste 0 -- -- 38
2020-01-13 17:00:00 12.1 9 Sudeste 17 Sudeste 0 -- -- 39
2020-01-13 16:00:00 13.2 12 Sudeste 16 Sur 0 -- -- 38
2020-01-13 15:00:00 14.8 11 Sudeste 21 Sudeste 0 -- -- 34
2020-01-13 14:00:00 15.1 12 Sur 19 Sudeste 0 -- -- 38
2020-01-13 13:00:00 14 7 Sudeste 13 Sudeste 0 -- -- 44
2020-01-13 12:00:00 9.8 9 Sudoeste 15 Sudoeste 0 -- -- 62
2020-01-13 11:00:00 9.6 8 Sudoeste 16 Sudoeste 0 -- -- 63
2020-01-13 10:00:00 7.5 12 Sudoeste 18 Sudoeste 0 -- -- 66
2020-01-13 09:00:00 6.7 3 Nordeste 17 Sudoeste 0 -- -- 67
2020-01-13 08:00:00 6.5 14 Sur 20 Sudoeste 0 -- -- 69
2020-01-13 07:00:00 5.7 11 Sur 16 Sur 0 -- -- 74
2020-01-13 06:00:00 7.1 10 Sudoeste 19 Sudoeste 0 -- -- 74
2020-01-13 05:00:00 4.8 11 Sur 15 Sur 0 -- -- 83
2020-01-13 04:00:00 6.3 13 Sudoeste 18 Sudoeste 0 -- -- 79
2020-01-13 03:00:00 6.3 6 Sudoeste 18 Sudoeste 0 -- -- 80
2020-01-13 02:00:00 6.8 8 Sudoeste 15 Sudoeste 0 -- -- 80
2020-01-13 01:00:00 6.3 6 Sudoeste 15 Sudoeste 0 -- -- 81
2020-01-13 00:00:00 6.2 10 Sudoeste 15 Sur 0 -- -- 84
2020-01-12 23:00:00 6.5 0 Calma 10 Sudoeste 0 -- -- 80
2020-01-12 22:00:00 8.1 7 Sudoeste 11 Sudoeste 0 -- -- 72
2020-01-12 21:00:00 8.7 7 Sudoeste 10 Sudoeste 0 -- -- 68
2020-01-12 20:00:00 10.3 2 Sur 3 Sudoeste 0 -- -- 56
2020-01-12 19:00:00 10.2 4 Sur 4 Sudoeste 0 -- -- 59
2020-01-12 18:00:00 11.1 0 Calma 8 Noroeste 0 -- -- 54
2020-01-12 17:00:00 13 6 Noroeste 10 Noroeste 0 -- -- 51
2020-01-12 16:00:00 14.8 6 Noroeste 11 Noroeste 0 -- -- 45
2020-01-12 15:00:00 15.2 6 Norte 9 Noroeste 0 -- -- 41
2020-01-12 14:00:00 14.7 0 Calma 8 Sur 0 -- -- 49
2020-01-12 13:00:00 12.3 6 Sur 12 Sur 0 -- -- 65
2020-01-12 12:00:00 10.3 10 Sur 15 Sudoeste 0 -- -- 64
2020-01-12 11:00:00 7.6 13 Sur 16 Sur 0 -- -- 68
2020-01-12 10:00:00 6.6 12 Sur 22 Sudoeste 0 -- -- 65
2020-01-12 09:00:00 3.8 17 Sudoeste 22 Sudoeste 0 -- -- 78
2020-01-12 08:00:00 1.9 8 Sur 15 Sudoeste 0 -- -- 85
2020-01-12 07:00:00 3.1 7 Sudoeste 15 Sudoeste 0 -- -- 80
2020-01-12 06:00:00 2.6 8 Sudoeste 18 Sudoeste 0 -- -- 84
2020-01-12 05:00:00 4.2 12 Sudoeste 17 Sudoeste 0 -- -- 80
2020-01-12 04:00:00 5.9 8 Sudoeste 17 Oeste 0 -- -- 72
2020-01-12 03:00:00 6.1 10 Sudoeste 15 Sudoeste 0 -- -- 72
2020-01-12 02:00:00 6.2 9 Sudoeste 14 Sudoeste 0 -- -- 75
2020-01-12 01:00:00 6.5 9 Sudoeste 15 Sudoeste 0 -- -- 75
2020-01-12 00:00:00 7.2 8 Sudoeste 15 Sudoeste 0 -- -- 71
2020-01-11 23:00:00 6.8 9 Sudoeste 13 Sudoeste 0 -- -- 76
2020-01-11 22:00:00 8 7 Sudoeste 13 Sudoeste 0 -- -- 71
2020-01-11 21:00:00 7.1 8 Sudoeste 10 Sudoeste 0 -- -- 81
2020-01-11 20:00:00 8 6 Sudoeste 8 Sudoeste 0 -- -- 88
2020-01-11 19:00:00 9.3 3 Sudoeste 6 Oeste 0 -- -- 82
2020-01-11 18:00:00 10.4 0 Calma 6 Noroeste 0 -- -- 80
2020-01-11 17:00:00 12 4 Noroeste 9 Noroeste 0 -- -- 75
2020-01-11 16:00:00 12.6 2 Norte 8 Nordeste 0 -- -- 62
2020-01-11 15:00:00 12.9 4 Nordeste 11 Este 0 -- -- 60
2020-01-11 14:00:00 12.8 5 Sudeste 11 Sudeste 0 -- -- 63
2020-01-11 13:00:00 11.3 5 Sur 13 Sudeste 0 -- -- 67
2020-01-11 12:00:00 9.3 7 Sudeste 10 Sur 0 -- -- 74
2020-01-11 11:00:00 7.1 8 Sur 15 Sur 0 -- -- 85
2020-01-11 10:00:00 5.3 10 Sudoeste 13 Sudoeste 0 -- -- 91
2020-01-11 09:00:00 3.3 8 Sudoeste 12 Sudoeste 0 -- -- 98
2020-01-11 08:00:00 2.9 8 Sudoeste 13 Sudoeste 0 -- -- 95
2020-01-11 07:00:00 3.6 10 Sudoeste 13 Sur 0 -- -- 96
2020-01-11 06:00:00 3.6 9 Sudoeste 14 Sudoeste 0 -- -- 95
2020-01-11 05:00:00 4.8 9 Sudoeste 15 Sudoeste 0 -- -- 93
2020-01-11 04:00:00 4.5 10 Sudoeste 15 Sudoeste 0 -- -- 97
2020-01-11 03:00:00 4.8 10 Sur 15 Sudoeste 0 -- -- 96
2020-01-11 02:00:00 6.4 7 Sudoeste 13 Sudoeste 0 -- -- 98
2020-01-11 01:00:00 6.5 5 Sur 7 Sur 0 -- -- 97
2020-01-11 00:00:00 8 0 Calma 10 Oeste 0 -- -- 93
2020-01-10 23:00:00 8.1 5 Sudoeste 12 Sudoeste 0 -- -- 94
2020-01-10 22:00:00 8.2 4 Sur 13 Oeste 0 -- -- 95
2020-01-10 21:00:00 8.2 5 Sudoeste 16 Sudoeste 0 -- -- 96
2020-01-10 20:00:00 8.3 9 Sudoeste 17 Oeste 0 -- -- 96
2020-01-10 19:00:00 8.4 9 Sudoeste 18 Sudoeste 0 -- -- 95
2020-01-10 18:00:00 8.2 5 Oeste 15 Sudoeste 0 -- -- 94
2020-01-10 17:00:00 9.1 8 Oeste 23 Noroeste 1.6 -- -- 94
2020-01-10 16:00:00 10.7 10 Noroeste 25 Noroeste 1.2 -- -- 87
2020-01-10 15:00:00 11.5 9 Noroeste 27 Oeste 0 -- -- 80
2020-01-10 14:00:00 11.7 13 Oeste 32 Oeste 0 -- -- 79
2020-01-10 13:00:00 10.9 9 Oeste 27 Oeste 0.2 -- -- 84
2020-01-10 12:00:00 8.9 10 Oeste 28 Oeste 1 -- -- 91
2020-01-10 11:00:00 10.2 9 Oeste 27 Oeste 0 -- -- 83
2020-01-10 10:00:00 8.8 9 Oeste 24 Sudoeste 0 -- -- 83
2020-01-10 09:00:00 8.1 6 Sudoeste 31 Oeste 0.2 -- -- 84
2020-01-10 08:00:00 8.2 12 Oeste 24 Noroeste 0.2 -- -- 85
2020-01-10 07:00:00 8.4 10 Oeste 30 Noroeste 0 -- -- 85
2020-01-10 06:00:00 8.1 12 Oeste 27 Oeste 0.2 -- -- 87
2020-01-10 05:00:00 8.1 12 Oeste 36 Oeste 0.2 -- -- 86
2020-01-10 04:00:00 7.9 8 Sudoeste 32 Oeste 0.8 -- -- 91
2020-01-10 03:00:00 8.5 8 Sudoeste 37 Oeste 0 -- -- 87
2020-01-10 02:00:00 9.7 13 Oeste 44 Oeste 0 -- -- 74
2020-01-10 01:00:00 9.8 8 Oeste 37 Noroeste 0 -- -- 77
2020-01-10 00:00:00 9.9 19 Noroeste 49 Noroeste 0 -- -- 78
2020-01-09 23:00:00 10 7 Oeste 28 Oeste 0 -- -- 61
2020-01-09 22:00:00 9.9 9 Oeste 30 Oeste 0 -- -- 63
2020-01-09 21:00:00 10.3 5 Sudoeste 19 Noroeste 0 -- -- 82
2020-01-09 20:00:00 9.6 3 Sudoeste 13 Oeste 0 -- -- 89
2020-01-09 19:00:00 10 9 Sur 21 Oeste 0.2 -- -- 89
2020-01-09 18:00:00 10.3 9 Oeste 46 Oeste 0.2 -- -- 89
2020-01-09 17:00:00 11.3 16 Noroeste 50 Oeste 0 -- -- 83
2020-01-09 16:00:00 11.3 24 Noroeste 66 Noroeste 0 -- -- 83
2020-01-09 15:00:00 17.5 19 Noroeste 37 Noroeste 0 -- -- 47
2020-01-09 14:00:00 19.4 15 Sudeste 24 Sudeste 0 -- -- 50
2020-01-09 13:00:00 18.4 10 Sur 23 Sudeste 0 -- -- 50
2020-01-09 12:00:00 16.8 12 Sur 21 Sur 0 -- -- 55
2020-01-09 11:00:00 13.9 6 Sur 15 Sudoeste 0 -- -- 60
2020-01-09 10:00:00 12 12 Sudoeste 17 Sudoeste 0 -- -- 62
2020-01-09 09:00:00 10.5 10 Sudoeste 19 Sudoeste -- -- -- 62
2020-01-09 08:00:00 11 13 Sudoeste 19 Sudoeste 0 -- -- 58
2020-01-09 07:00:00 10.1 13 Sudoeste 18 Sudoeste 0 -- -- 61
2020-01-09 06:00:00 10.7 15 Sudoeste 24 Sudoeste 0 -- -- 58
2020-01-09 05:00:00 11.1 9 Sudoeste 22 Sudoeste 0 -- -- 56
2020-01-09 04:00:00 9.7 10 Sur 18 Sudoeste 0 -- -- 64
2020-01-09 03:00:00 10.2 10 Sudoeste 15 Sudoeste 0 -- -- 62
2020-01-09 02:00:00 11.1 10 Sudoeste 19 Sudoeste 0 -- -- 59
2020-01-09 01:00:00 7.7 9 Sur 14 Sur 0 -- -- 81
2020-01-09 00:00:00 9.5 8 Sur 17 Sudoeste 0 -- -- 72
2020-01-08 23:00:00 9.6 10 Sudoeste 15 Sudoeste 0 -- -- 75
2020-01-08 22:00:00 10.1 0 Calma 8 Sudoeste 0 -- -- 73
2020-01-08 21:00:00 10.5 0 Calma 8 Sudoeste 0 -- -- 69
2020-01-08 20:00:00 10.9 6 Sudoeste 9 Sudoeste 0 -- -- 68
2020-01-08 19:00:00 12 3 Sur 5 Sudoeste 0 -- -- 59
2020-01-08 18:00:00 12.8 2 Norte 4 Este 0 -- -- 56
2020-01-08 17:00:00 13.9 3 Este 10 Nordeste 0 -- -- 53
2020-01-08 16:00:00 15 9 Nordeste 13 Este 0 -- -- 45
2020-01-08 15:00:00 15.8 6 Nordeste 9 Nordeste 0 -- -- 55
2020-01-08 14:00:00 16.3 5 Nordeste 8 Sur 0 -- -- 47
2020-01-08 13:00:00 16.2 5 Sur 11 Sur 0 -- -- 49
2020-01-08 12:00:00 13.7 8 Sur 14 Sudoeste 0 -- -- 53
2020-01-08 11:00:00 10.6 6 Sur 11 Sudoeste 0 -- -- 61
2020-01-08 10:00:00 8 10 Sur 14 Sur 0 -- -- 64
2020-01-08 09:00:00 7.9 8 Sur 18 Oeste 0 -- -- 66
2020-01-08 08:00:00 10.2 10 Sudoeste 16 Oeste 0 -- -- 43
2020-01-08 07:00:00 9.4 10 Sudoeste 16 Sudoeste 0 -- -- 48
2020-01-08 06:00:00 5.7 10 Sudoeste 14 Sudoeste 0 -- -- 76
2020-01-08 05:00:00 6.8 6 Sur 15 Sudoeste 0 -- -- 71
2020-01-08 04:00:00 7.9 9 Sudoeste 14 Sudoeste 0 -- -- 68
2020-01-08 03:00:00 8 7 Sudoeste 16 Sudoeste 0 -- -- 69
2020-01-08 02:00:00 5.9 4 Oeste 14 Sur 0 -- -- 83
2020-01-08 01:00:00 6.7 10 Sur 14 Sudoeste 0 -- -- 82
2020-01-08 00:00:00 6.5 11 Sur 13 Sur 0 -- -- 89
2020-01-07 23:00:00 7.3 6 Sur 12 Sudoeste 0 -- -- 86
2020-01-07 22:00:00 7.9 7 Sudoeste 10 Sudoeste 0 -- -- 90
2020-01-07 21:00:00 7.8 6 Sudoeste 9 Sudoeste 0 -- -- 94
2020-01-07 20:00:00 9 3 Sudoeste 8 Sudoeste 0 -- -- 94
2020-01-07 19:00:00 9.4 0 Calma 4 Sur 0 -- -- 90
2020-01-07 18:00:00 10.1 3 Noroeste 8 Nordeste 0 -- -- 88
2020-01-07 17:00:00 11.3 4 Nordeste 19 Norte 0 -- -- 84
2020-01-07 16:00:00 13.1 6 Norte 17 Oeste 0 -- -- 72
2020-01-07 15:00:00 13.5 4 Noroeste 15 Norte 0 -- -- 66
2020-01-07 14:00:00 13 7 Norte 16 Norte 0 -- -- 74
2020-01-07 13:00:00 13.8 5 Sudoeste 13 Norte 0 -- -- 63
2020-01-07 12:00:00 11.8 9 Norte 15 Norte 0 -- -- 67
2020-01-07 11:00:00 9.9 7 Sur 12 Sudoeste 0 -- -- 77
2020-01-07 10:00:00 6.8 0 Calma 10 Sudoeste 0.2 -- -- 84
2020-01-07 09:00:00 5 7 Sur 13 Sudoeste 0 -- -- 88
2020-01-07 08:00:00 5.5 9 Sur 15 Sudoeste 0 -- -- 84
2020-01-07 07:00:00 5.8 7 Sur 18 Sudoeste 0 -- -- 78
2020-01-07 06:00:00 5.1 10 Sur 17 Sur 0 -- -- 85
2020-01-07 05:00:00 5 10 Sudoeste 15 Sudoeste 0 -- -- 87
2020-01-07 04:00:00 5 10 Sudoeste 16 Sudoeste 0 -- -- 88
2020-01-07 03:00:00 4.9 11 Sudoeste 14 Sudoeste 0 -- -- 93
2020-01-07 02:00:00 6 9 Sudoeste 14 Sudoeste 0 -- -- 90
2020-01-07 01:00:00 6.2 8 Sudoeste 14 Sudoeste 0 -- -- 93
2020-01-07 00:00:00 7.3 8 Sur 15 Sudoeste 0 -- -- 86
2020-01-06 23:00:00 6.9 4 Oeste 14 Sur 0 -- -- 94
2020-01-06 22:00:00 5.5 10 Sur 11 Sur 0 -- -- 94
2020-01-06 21:00:00 8 6 Sudoeste 16 Sudoeste 0 -- -- 92
2020-01-06 20:00:00 7.9 10 Sudoeste 14 Sudoeste 0 -- -- 92
2020-01-06 19:00:00 8.6 5 Noroeste 17 Noroeste 0 -- -- 92
2020-01-06 18:00:00 8.5 8 Noroeste 15 Sur 0 -- -- 88
2020-01-06 17:00:00 10.1 10 Sur 17 Sur 0 -- -- 86
2020-01-06 16:00:00 11.2 5 Noroeste 13 Noroeste 0 -- -- 82
2020-01-06 15:00:00 11.6 8 Noroeste 21 Noroeste 0 -- -- 82
2020-01-06 14:00:00 11.6 8 Noroeste 20 Norte 0 -- -- 81
2020-01-06 13:00:00 12 7 Noroeste 15 Noroeste 0 -- -- 78
2020-01-06 12:00:00 11.4 5 Sudoeste 15 Sudoeste 0 -- -- 79
2020-01-06 11:00:00 9.5 9 Sudoeste 16 Sudoeste 0 -- -- 82
2020-01-06 10:00:00 6.6 12 Sudoeste 20 Sudoeste -- -- -- 92